| time (UTC) | temp F | wind direction | speed MPH | gust MPH | rain 1hr in | rain 24hr in | rain mn in | humidity % | barometer mb |
| 20260507234259 | 63 | 89 | 1.0 | 1.0 | 0.00 | 0.00 | 0.00 | 42 | 1008.5 |
| 20260507233755 | 63 | 321 | 3.0 | 5.0 | 0.00 | 0.00 | 0.00 | 42 | 1008.7 |
| 20260507233253 | 63 | 0 | 5.0 | 6.0 | 0.00 | 0.00 | 0.00 | 42 | 1008.4 |
| 20260507232750 | 63 | 343 | 5.0 | 7.0 | 0.00 | 0.00 | 0.00 | 41 | 1008.5 |
| 20260507232247 | 64 | 314 | 7.0 | 9.0 | 0.00 | 0.00 | 0.00 | 41 | 1008.4 |
| 20260507231744 | 64 | 2 | 5.0 | 6.0 | 0.00 | 0.00 | 0.00 | 41 | 1008.4 |
| 20260507231240 | 64 | 21 | 6.0 | 7.0 | 0.00 | 0.00 | 0.00 | 41 | 1008.1 |
| 20260507230737 | 64 | 286 | 9.0 | 14.0 | 0.00 | 0.00 | 0.00 | 40 | 1008.2 |
| 20260507230235 | 64 | 326 | 4.0 | 5.0 | 0.00 | 0.00 | 0.00 | 40 | 1008.0 |
| 20260507225734 | 64 | 345 | 6.0 | 8.0 | 0.00 | 0.00 | 0.00 | 40 | 1008.1 |
| 20260507225231 | 65 | 344 | 5.0 | 7.0 | 0.00 | 0.00 | 0.00 | 41 | 1008.0 |
| 20260507224726 | 66 | 342 | 6.0 | 7.0 | 0.00 | 0.00 | 0.00 | 39 | 1007.8 |
| 20260507224223 | 67 | 7 | 7.0 | 9.0 | 0.00 | 0.00 | 0.00 | 39 | 1007.6 |
| 20260507223719 | 66 | 332 | 4.0 | 5.0 | 0.00 | 0.00 | 0.00 | 38 | 1007.5 |
| 20260507223216 | 66 | 344 | 5.0 | 7.0 | 0.00 | 0.00 | 0.00 | 39 | 1007.5 |
| 20260507222713 | 67 | 322 | 6.0 | 8.0 | 0.00 | 0.00 | 0.00 | 37 | 1007.4 |
| 20260507222209 | 67 | 341 | 6.0 | 7.0 | 0.00 | 0.00 | 0.00 | 38 | 1007.3 |
| 20260507221706 | 67 | 319 | 5.0 | 7.0 | 0.00 | 0.00 | 0.00 | 39 | 1007.2 |
| 20260507221202 | 67 | 324 | 6.0 | 9.0 | 0.00 | 0.00 | 0.00 | 38 | 1007.2 |
| 20260507220659 | 68 | 352 | 11.0 | 16.0 | 0.00 | 0.00 | 0.00 | 38 | 1007.3 |
| 20260507220158 | 67 | 22 | 10.0 | 14.0 | 0.00 | 0.00 | 0.00 | 38 | 1007.1 |
| 20260507215653 | 68 | 325 | 3.0 | 6.0 | 0.00 | 0.00 | 0.00 | 40 | 1007.0 |
| 20260507215151 | 67 | 352 | 5.0 | 8.0 | 0.00 | 0.00 | 0.00 | 38 | 1006.9 |
| 20260507214648 | 67 | 26 | 6.0 | 8.0 | 0.00 | 0.00 | 0.00 | 37 | 1006.9 |
| 20260507214145 | 67 | 322 | 6.0 | 8.0 | 0.00 | 0.00 | 0.00 | 39 | 1007.2 |
| 20260507213640 | 67 | 17 | 6.0 | 7.0 | 0.00 | 0.00 | 0.00 | 39 | 1007.0 |
| 20260507213138 | 67 | 338 | 8.0 | 10.0 | 0.00 | 0.00 | 0.00 | 39 | 1007.0 |
| 20260507212634 | 68 | 344 | 5.0 | 7.0 | 0.00 | 0.00 | 0.00 | 38 | 1006.9 |
| 20260507212131 | 68 | 8 | 5.0 | 7.0 | 0.00 | 0.00 | 0.00 | 36 | 1006.9 |
| 20260507211628 | 69 | 3 | 12.0 | 14.0 | 0.00 | 0.00 | 0.00 | 36 | 1006.5 |
| 20260507211123 | 69 | 313 | 8.0 | 10.0 | 0.00 | 0.00 | 0.00 | 37 | 1006.9 |
| 20260507210621 | 69 | 25 | 5.0 | 7.0 | 0.00 | 0.00 | 0.00 | 40 | 1007.0 |
| 20260507210117 | 68 | 25 | 4.0 | 6.0 | 0.00 | 0.00 | 0.00 | 39 | 1006.9 |
| 20260507205614 | 68 | 343 | 7.0 | 9.0 | 0.00 | 0.00 | 0.00 | 39 | 1006.8 |
| 20260507205111 | 68 | 0 | 9.0 | 13.0 | 0.00 | 0.00 | 0.00 | 38 | 1006.8 |
| 20260507204607 | 68 | 18 | 6.0 | 10.0 | 0.00 | 0.00 | 0.00 | 39 | 1006.6 |
| 20260507204104 | 69 | 17 | 4.0 | 7.0 | 0.00 | 0.00 | 0.00 | 38 | 1006.6 |
| 20260507203602 | 69 | 301 | 10.0 | 14.0 | 0.00 | 0.00 | 0.00 | 39 | 1006.9 |
| 20260507203059 | 69 | 353 | 6.0 | 8.0 | 0.00 | 0.00 | 0.00 | 39 | 1006.9 |
| 20260507202555 | 69 | 330 | 7.0 | 9.0 | 0.00 | 0.00 | 0.00 | 40 | 1006.9 |
| 20260507202051 | 68 | 356 | 7.0 | 9.0 | 0.00 | 0.00 | 0.00 | 40 | 1006.9 |
| 20260507201547 | 68 | 333 | 4.0 | 5.0 | 0.00 | 0.00 | 0.00 | 42 | 1006.8 |
| 20260507201044 | 68 | 282 | 3.0 | 6.0 | 0.00 | 0.00 | 0.00 | 42 | 1006.8 |
| 20260507200539 | 68 | 38 | 3.0 | 5.0 | 0.00 | 0.00 | 0.00 | 44 | 1006.9 |
| 20260507200035 | 69 | 45 | 2.0 | 3.0 | 0.00 | 0.00 | 0.00 | 46 | 1007.0 |
| 20260507195533 | 70 | 173 | 5.0 | 6.0 | 0.00 | 0.00 | 0.00 | 42 | 1006.9 |
| 20260507195031 | 68 | 66 | 1.0 | 1.0 | 0.00 | 0.00 | 0.00 | 47 | 1007.1 |
| 20260507194526 | 68 | 24 | 3.0 | 3.0 | 0.00 | 0.00 | 0.00 | 46 | 1007.0 |
| 20260507194023 | 68 | 249 | 0.0 | 1.0 | 0.00 | 0.00 | 0.00 | 48 | 1007.3 |
| 20260507193520 | 66 | 179 | 1.0 | 2.0 | 0.00 | 0.00 | 0.00 | 51 | 1007.1 |
| 20260507193017 | 66 | 27 | 2.0 | 3.0 | 0.00 | 0.00 | 0.00 | 48 | 1007.2 |
| 20260507192513 | 66 | 94 | 0.0 | 0.0 | 0.00 | 0.00 | 0.00 | 51 | 1007.5 |
| 20260507192010 | 66 | 82 | 3.0 | 5.0 | 0.00 | 0.00 | 0.00 | 51 | 1007.5 |
| 20260507191505 | 66 | 140 | 1.0 | 1.0 | 0.00 | 0.00 | 0.00 | 49 | 1007.4 |
| 20260507191002 | 66 | 92 | 1.0 | 1.0 | 0.00 | 0.00 | 0.00 | 52 | 1007.5 |
| 20260507190500 | 66 | 96 | 0.0 | 0.0 | 0.00 | 0.00 | 0.00 | 53 | 1007.5 |
| 20260507185959 | 68 | 198 | 6.0 | 7.0 | 0.00 | 0.00 | 0.00 | 51 | 1007.5 |
| 20260507185455 | 68 | 70 | 1.0 | 1.0 | 0.00 | 0.00 | 0.00 | 49 | 1007.7 |
| 20260507184952 | 67 | 191 | 4.0 | 6.0 | 0.00 | 0.00 | 0.00 | 55 | 1007.8 |
| 20260507184450 | 67 | 132 | 3.0 | 5.0 | 0.00 | 0.00 | 0.00 | 51 | 1007.8 |
| 20260507183948 | 68 | 164 | 5.0 | 7.0 | 0.00 | 0.00 | 0.00 | 51 | 1007.7 |
| 20260507183444 | 67 | 165 | 4.0 | 6.0 | 0.00 | 0.00 | 0.00 | 53 | 1007.7 |
| 20260507182942 | 66 | 127 | 3.0 | 3.0 | 0.00 | 0.00 | 0.00 | 56 | 1008.2 |
| 20260507182437 | 65 | 123 | 2.0 | 3.0 | 0.00 | 0.00 | 0.00 | 54 | 1007.8 |
| 20260507181934 | 64 | 53 | 4.0 | 7.0 | 0.00 | 0.00 | 0.00 | 53 | 1007.9 |
| 20260507181430 | 64 | 172 | 4.0 | 5.0 | 0.00 | 0.00 | 0.00 | 53 | 1007.9 |
| 20260507180927 | 65 | 187 | 3.0 | 3.0 | 0.00 | 0.00 | 0.00 | 52 | 1008.2 |
| 20260507180424 | 66 | 185 | 6.0 | 8.0 | 0.00 | 0.00 | 0.00 | 51 | 1008.3 |
| 20260507175919 | 66 | 198 | 7.0 | 10.0 | 0.00 | 0.00 | 0.00 | 56 | 1008.3 |
| 20260507175416 | 64 | 186 | 1.0 | 1.0 | 0.00 | 0.00 | 0.00 | 56 | 1008.5 |
| 20260507174914 | 65 | 191 | 5.0 | 7.0 | 0.00 | 0.00 | 0.00 | 53 | 1008.2 |
| 20260507174411 | 65 | 124 | 1.0 | 2.0 | 0.00 | 0.00 | 0.00 | 55 | 1008.5 |
| 20260507173909 | 64 | 249 | 7.0 | 8.0 | 0.00 | 0.00 | 0.00 | 52 | 1008.8 |
| 20260507173406 | 66 | 195 | 6.0 | 8.0 | 0.00 | 0.00 | 0.00 | 56 | 1008.5 |
| 20260507172902 | 64 | 238 | 5.0 | 8.0 | 0.00 | 0.00 | 0.00 | 56 | 1008.9 |
| 20260507172359 | 64 | 138 | 2.0 | 3.0 | 0.00 | 0.00 | 0.00 | 55 | 1009.0 |
| 20260507171855 | 65 | 116 | 4.0 | 6.0 | 0.00 | 0.00 | 0.00 | 52 | 1008.8 |
| 20260507171351 | 64 | 256 | 4.0 | 5.0 | 0.00 | 0.00 | 0.00 | 51 | 1009.0 |
| 20260507170849 | 63 | 194 | 3.0 | 5.0 | 0.00 | 0.00 | 0.00 | 57 | 1008.9 |
| 20260507170345 | 64 | 170 | 1.0 | 2.0 | 0.00 | 0.00 | 0.00 | 52 | 1009.3 |
| 20260507165841 | 64 | 187 | 6.0 | 7.0 | 0.00 | 0.00 | 0.00 | 50 | 1009.0 |
| 20260507165337 | 64 | 222 | 3.0 | 3.0 | 0.00 | 0.00 | 0.00 | 50 | 1009.5 |
| 20260507164833 | 62 | 235 | 4.0 | 5.0 | 0.00 | 0.00 | 0.00 | 52 | 1009.4 |
| 20260507164330 | 62 | 209 | 6.0 | 7.0 | 0.00 | 0.00 | 0.00 | 53 | 1009.4 |
| 20260507163828 | 62 | 104 | 1.0 | 1.0 | 0.00 | 0.00 | 0.00 | 51 | 1009.6 |
| 20260507163325 | 63 | 95 | 1.0 | 3.0 | 0.00 | 0.00 | 0.00 | 50 | 1009.9 |
| 20260507162821 | 62 | 99 | 1.0 | 2.0 | 0.00 | 0.00 | 0.00 | 52 | 1009.8 |
| 20260507162317 | 63 | 48 | 3.0 | 6.0 | 0.00 | 0.00 | 0.00 | 49 | 1009.9 |
| 20260507161814 | 63 | 221 | 4.0 | 5.0 | 0.00 | 0.00 | 0.00 | 51 | 1010.0 |
| 20260507161311 | 62 | 243 | 2.0 | 3.0 | 0.00 | 0.00 | 0.00 | 56 | 1010.2 |
| 20260507160807 | 62 | 279 | 3.0 | 5.0 | 0.00 | 0.00 | 0.00 | 55 | 1010.1 |
| 20260507160303 | 60 | 139 | 1.0 | 1.0 | 0.00 | 0.00 | 0.00 | 53 | 1010.4 |
| 20260507155759 | 61 | 227 | 11.0 | 13.0 | 0.00 | 0.00 | 0.00 | 52 | 1010.1 |
| 20260507155255 | 60 | 135 | 2.0 | 2.0 | 0.00 | 0.00 | 0.00 | 52 | 1010.3 |
| 20260507154752 | 60 | 226 | 8.0 | 10.0 | 0.00 | 0.00 | 0.00 | 55 | 1010.3 |
| 20260507154250 | 61 | 192 | 9.0 | 9.0 | 0.00 | 0.00 | 0.00 | 54 | 1010.5 |
| 20260507153746 | 60 | 89 | 1.0 | 2.0 | 0.00 | 0.00 | 0.00 | 54 | 1010.6 |
| 20260507153242 | 60 | 106 | 2.0 | 3.0 | 0.00 | 0.00 | 0.00 | 53 | 1010.6 |
| 20260507152739 | 60 | 113 | 5.0 | 8.0 | 0.00 | 0.00 | 0.00 | 53 | 1010.8 |
| 20260507152236 | 59 | 237 | 3.0 | 3.0 | 0.00 | 0.00 | 0.00 | 54 | 1011.0 |
| 20260507151731 | 60 | 88 | 1.0 | 2.0 | 0.00 | 0.00 | 0.00 | 55 | 1011.1 |
| 20260507151228 | 60 | 219 | 3.0 | 5.0 | 0.00 | 0.00 | 0.00 | 51 | 1011.0 |
| 20260507150725 | 58 | 40 | 7.0 | 8.0 | 0.00 | 0.00 | 0.00 | 56 | 1011.1 |
| 20260507150222 | 59 | 141 | 1.0 | 1.0 | 0.00 | 0.00 | 0.00 | 55 | 1011.2 |
| 20260507145718 | 59 | 336 | 3.0 | 5.0 | 0.00 | 0.00 | 0.00 | 54 | 1011.3 |
| 20260507145215 | 59 | 99 | 1.0 | 2.0 | 0.00 | 0.00 | 0.00 | 56 | 1011.5 |
| 20260507144711 | 60 | 128 | 1.0 | 2.0 | 0.00 | 0.00 | 0.00 | 56 | 1011.7 |
| 20260507144209 | 58 | 16 | 0.0 | 1.0 | 0.00 | 0.00 | 0.00 | 59 | 1011.6 |
| 20260507143706 | 57 | 41 | 3.0 | 5.0 | 0.00 | 0.00 | 0.00 | 55 | 1011.6 |
| 20260507143203 | 56 | 54 | 5.0 | 7.0 | 0.00 | 0.00 | 0.00 | 58 | 1011.7 |
| 20260507142658 | 55 | 34 | 2.0 | 2.0 | 0.00 | 0.00 | 0.00 | 60 | 1011.7 |
| 20260507142155 | 55 | 23 | 5.0 | 6.0 | 0.00 | 0.00 | 0.00 | 59 | 1011.8 |
| 20260507141651 | 55 | 60 | 3.0 | 5.0 | 0.00 | 0.00 | 0.00 | 59 | 1012.0 |
| 20260507141148 | 55 | 83 | 3.0 | 6.0 | 0.00 | 0.00 | 0.00 | 61 | 1011.5 |
| 20260507140645 | 55 | 63 | 3.0 | 5.0 | 0.00 | 0.00 | 0.00 | 61 | 1011.9 |
| 20260507140142 | 54 | 71 | 0.0 | 1.0 | 0.00 | 0.00 | 0.00 | 62 | 1012.1 |
| 20260507135639 | 54 | 99 | 1.0 | 2.0 | 0.00 | 0.00 | 0.00 | 62 | 1012.1 |
| 20260507135137 | 54 | 34 | 3.0 | 3.0 | 0.00 | 0.00 | 0.00 | 63 | 1012.3 |
| 20260507134633 | 54 | 66 | 1.0 | 1.0 | 0.00 | 0.00 | 0.00 | 64 | 1012.3 |
| 20260507134129 | 53 | 83 | 2.0 | 2.0 | 0.00 | 0.00 | 0.00 | 63 | 1012.4 |
| 20260507133625 | 53 | 60 | 2.0 | 3.0 | 0.00 | 0.00 | 0.00 | 66 | 1012.4 |
| 20260507133123 | 53 | 53 | 1.0 | 2.0 | 0.00 | 0.00 | 0.00 | 64 | 1012.6 |
| 20260507132620 | 53 | 38 | 2.0 | 2.0 | 0.00 | 0.00 | 0.00 | 66 | 1012.5 |
| 20260507132116 | 53 | 35 | 3.0 | 5.0 | 0.00 | 0.00 | 0.00 | 66 | 1012.4 |
| 20260507131613 | 53 | 59 | 6.0 | 7.0 | 0.00 | 0.00 | 0.00 | 66 | 1012.7 |
| 20260507131111 | 53 | 9 | 1.0 | 2.0 | 0.00 | 0.00 | 0.00 | 66 | 1012.8 |
| 20260507130607 | 53 | 59 | 1.0 | 2.0 | 0.00 | 0.00 | 0.00 | 68 | 1012.6 |
| 20260507130105 | 53 | 53 | 1.0 | 3.0 | 0.00 | 0.00 | 0.00 | 67 | 1012.4 |
| 20260507125603 | 53 | 44 | 1.0 | 2.0 | 0.00 | 0.00 | 0.00 | 67 | 1012.5 |
| 20260507125100 | 53 | 65 | 0.0 | 1.0 | 0.00 | 0.00 | 0.00 | 68 | 1012.3 |
| 20260507124557 | 53 | 37 | 4.0 | 6.0 | 0.00 | 0.00 | 0.00 | 67 | 1012.7 |
| 20260507124055 | 53 | 3 | 5.0 | 7.0 | 0.00 | 0.00 | 0.00 | 68 | 1012.4 |
| 20260507123552 | 53 | 35 | 3.0 | 5.0 | 0.00 | 0.00 | 0.00 | 69 | 1012.5 |
| 20260507123049 | 53 | 38 | 4.0 | 6.0 | 0.00 | 0.00 | 0.00 | 69 | 1012.2 |
| 20260507122545 | 53 | 46 | 3.0 | 5.0 | 0.00 | 0.00 | 0.00 | 70 | 1012.4 |
| 20260507122040 | 53 | 8 | 5.0 | 7.0 | 0.00 | 0.00 | 0.00 | 70 | 1012.3 |
| 20260507121536 | 53 | 52 | 5.0 | 6.0 | 0.00 | 0.00 | 0.00 | 71 | 1012.2 |
| 20260507121032 | 53 | 44 | 3.0 | 5.0 | 0.00 | 0.00 | 0.00 | 71 | 1012.3 |
| 20260507120529 | 53 | 34 | 1.0 | 2.0 | 0.00 | 0.00 | 0.00 | 72 | 1012.2 |
| 20260507120026 | 53 | 37 | 3.0 | 3.0 | 0.00 | 0.00 | 0.00 | 74 | 1012.1 |
| 20260507115522 | 53 | 44 | 2.0 | 2.0 | 0.00 | 0.00 | 0.00 | 74 | 1012.3 |
| 20260507115018 | 53 | 29 | 3.0 | 5.0 | 0.00 | 0.00 | 0.00 | 74 | 1012.4 |
| 20260507114514 | 53 | 37 | 4.0 | 5.0 | 0.00 | 0.00 | 0.00 | 76 | 1012.0 |
| 20260507114011 | 53 | 27 | 3.0 | 5.0 | 0.00 | 0.00 | 0.00 | 77 | 1012.1 |
| 20260507113508 | 53 | 61 | 4.0 | 9.0 | 0.00 | 0.00 | 0.00 | 77 | 1012.0 |
| 20260507113006 | 53 | 38 | 2.0 | 3.0 | 0.00 | 0.00 | 0.00 | 79 | 1012.0 |
| 20260507112503 | 53 | 48 | 3.0 | 5.0 | 0.00 | 0.00 | 0.00 | 79 | 1012.0 |
| 20260507112000 | 53 | 66 | 1.0 | 1.0 | 0.00 | 0.00 | 0.00 | 80 | 1011.8 |
| 20260507111457 | 53 | 58 | 2.0 | 2.0 | 0.00 | 0.00 | 0.00 | 80 | 1011.6 |
| 20260507110953 | 53 | 45 | 3.0 | 5.0 | 0.00 | 0.00 | 0.00 | 80 | 1011.6 |
| 20260507110449 | 53 | 50 | 1.0 | 1.0 | 0.00 | 0.00 | 0.00 | 80 | 1011.6 |
| 20260507105946 | 53 | 47 | 5.0 | 6.0 | 0.00 | 0.00 | 0.00 | 80 | 1011.7 |
| 20260507105443 | 53 | 94 | 2.0 | 3.0 | 0.00 | 0.00 | 0.00 | 81 | 1011.4 |
| 20260507104940 | 53 | 72 | 2.0 | 3.0 | 0.00 | 0.00 | 0.00 | 80 | 1011.7 |
| 20260507104437 | 53 | 71 | 2.0 | 2.0 | 0.00 | 0.00 | 0.00 | 80 | 1011.6 |
| 20260507103932 | 53 | 89 | 1.0 | 1.0 | 0.00 | 0.00 | 0.00 | 80 | 1011.5 |
| 20260507103429 | 54 | 83 | 0.0 | 0.0 | 0.00 | 0.00 | 0.00 | 79 | 1011.3 |
| 20260507102925 | 54 | 84 | 0.0 | 0.0 | 0.00 | 0.00 | 0.00 | 78 | 1011.4 |
| 20260507102422 | 54 | 61 | 1.0 | 1.0 | 0.00 | 0.00 | 0.00 | 78 | 1011.4 |
| 20260507101919 | 54 | 44 | 2.0 | 2.0 | 0.00 | 0.00 | 0.00 | 78 | 1011.1 |
| 20260507101414 | 54 | 70 | 1.0 | 1.0 | 0.00 | 0.00 | 0.00 | 78 | 1011.3 |
| 20260507100910 | 54 | 68 | 0.0 | 1.0 | 0.00 | 0.00 | 0.00 | 78 | 1011.3 |
| 20260507100408 | 54 | 65 | 0.0 | 0.0 | 0.00 | 0.00 | 0.00 | 77 | 1011.3 |
| 20260507095906 | 54 | 65 | 1.0 | 1.0 | 0.00 | 0.00 | 0.00 | 77 | 1011.1 |
| 20260507095403 | 54 | 60 | 1.0 | 1.0 | 0.00 | 0.00 | 0.00 | 77 | 1011.1 |
| 20260507094900 | 54 | 76 | 0.0 | 1.0 | 0.00 | 0.00 | 0.00 | 77 | 1011.0 |
| 20260507094357 | 54 | 63 | 4.0 | 5.0 | 0.00 | 0.00 | 0.00 | 77 | 1010.8 |
| 20260507093853 | 54 | 62 | 1.0 | 1.0 | 0.00 | 0.00 | 0.00 | 78 | 1010.8 |
| 20260507093352 | 54 | 51 | 3.0 | 3.0 | 0.00 | 0.00 | 0.00 | 78 | 1011.0 |
| 20260507092850 | 54 | 56 | 1.0 | 1.0 | 0.00 | 0.00 | 0.00 | 77 | 1011.0 |
| 20260507092345 | 54 | 61 | 1.0 | 2.0 | 0.00 | 0.00 | 0.00 | 77 | 1011.1 |
| 20260507091842 | 54 | 54 | 1.0 | 2.0 | 0.00 | 0.00 | 0.00 | 77 | 1010.7 |
| 20260507091338 | 54 | 68 | 1.0 | 1.0 | 0.00 | 0.00 | 0.00 | 78 | 1010.8 |
| 20260507090834 | 54 | 79 | 0.0 | 1.0 | 0.00 | 0.00 | 0.00 | 79 | 1010.7 |
| 20260507090331 | 54 | 86 | 1.0 | 1.0 | 0.00 | 0.00 | 0.00 | 79 | 1010.8 |
| 20260507085828 | 54 | 131 | 0.0 | 0.0 | 0.00 | 0.00 | 0.00 | 80 | 1010.4 |
| 20260507085325 | 54 | 131 | 0.0 | 0.0 | 0.00 | 0.00 | 0.00 | 80 | 1010.6 |
| 20260507084822 | 54 | 132 | 0.0 | 0.0 | 0.00 | 0.00 | 0.00 | 80 | 1011.0 |
| 20260507084318 | 54 | 132 | 0.0 | 0.0 | 0.00 | 0.00 | 0.00 | 79 | 1010.5 |
| 20260507083816 | 54 | 133 | 0.0 | 0.0 | 0.00 | 0.00 | 0.00 | 78 | 1010.7 |
| 20260507083312 | 54 | 133 | 0.0 | 0.0 | 0.00 | 0.00 | 0.00 | 78 | 1010.8 |
| 20260507082808 | 54 | 157 | 0.0 | 0.0 | 0.00 | 0.00 | 0.00 | 79 | 1011.0 |
| 20260507082306 | 54 | 188 | 1.0 | 2.0 | 0.00 | 0.00 | 0.00 | 78 | 1011.0 |
| 20260507081802 | 54 | 175 | 3.0 | 3.0 | 0.00 | 0.00 | 0.00 | 78 | 1011.0 |
| 20260507081257 | 54 | 166 | 2.0 | 2.0 | 0.00 | 0.00 | 0.00 | 78 | 1011.0 |
| 20260507080754 | 54 | 155 | 2.0 | 2.0 | 0.00 | 0.00 | 0.00 | 79 | 1010.8 |
| 20260507080250 | 55 | 128 | 1.0 | 1.0 | 0.00 | 0.00 | 0.00 | 78 | 1011.2 |
| 20260507075746 | 55 | 92 | 0.0 | 0.0 | 0.00 | 0.00 | 0.00 | 76 | 1010.8 |
| 20260507075242 | 55 | 92 | 0.0 | 0.0 | 0.00 | 0.00 | 0.00 | 76 | 1010.5 |
| 20260507074738 | 55 | 93 | 0.0 | 0.0 | 0.00 | 0.00 | 0.00 | 75 | 1010.6 |
| 20260507074237 | 55 | 97 | 0.0 | 0.0 | 0.00 | 0.00 | 0.00 | 75 | 1010.5 |
| 20260507073733 | 55 | 107 | 1.0 | 1.0 | 0.00 | 0.00 | 0.00 | 75 | 1010.6 |
| 20260507073230 | 55 | 65 | 2.0 | 2.0 | 0.00 | 0.00 | 0.00 | 75 | 1010.4 |
| 20260507072728 | 55 | 76 | 0.0 | 0.0 | 0.00 | 0.00 | 0.00 | 74 | 1010.4 |
| 20260507072225 | 55 | 41 | 1.0 | 1.0 | 0.00 | 0.00 | 0.00 | 75 | 1010.3 |
| 20260507071722 | 55 | 38 | 2.0 | 3.0 | 0.00 | 0.00 | 0.00 | 75 | 1010.4 |
| 20260507071218 | 55 | 14 | 1.0 | 2.0 | 0.00 | 0.00 | 0.00 | 75 | 1010.4 |
| 20260507070715 | 55 | 66 | 0.0 | 1.0 | 0.00 | 0.00 | 0.00 | 76 | 1010.4 |
| 20260507070212 | 55 | 29 | 4.0 | 6.0 | 0.00 | 0.00 | 0.00 | 76 | 1010.5 |
| 20260507065709 | 55 | 51 | 3.0 | 5.0 | 0.00 | 0.00 | 0.00 | 76 | 1010.1 |
| 20260507065206 | 55 | 54 | 1.0 | 2.0 | 0.00 | 0.00 | 0.00 | 78 | 1010.7 |
| 20260507064703 | 55 | 63 | 2.0 | 2.0 | 0.00 | 0.00 | 0.00 | 77 | 1010.5 |
| 20260507064202 | 55 | 53 | 1.0 | 2.0 | 0.00 | 0.00 | 0.00 | 78 | 1010.7 |
| 20260507063659 | 55 | 57 | 5.0 | 5.0 | 0.00 | 0.00 | 0.00 | 78 | 1010.8 |
| 20260507063155 | 55 | 61 | 1.0 | 1.0 | 0.00 | 0.00 | 0.00 | 79 | 1010.4 |
| 20260507062652 | 55 | 60 | 4.0 | 5.0 | 0.00 | 0.00 | 0.00 | 80 | 1010.7 |
| 20260507062150 | 55 | 53 | 3.0 | 3.0 | 0.00 | 0.00 | 0.00 | 80 | 1010.7 |
| 20260507061648 | 55 | 21 | 3.0 | 3.0 | 0.00 | 0.00 | 0.00 | 81 | 1011.2 |
| 20260507061145 | 55 | 24 | 5.0 | 7.0 | 0.00 | 0.00 | 0.00 | 81 | 1011.1 |
| 20260507060643 | 55 | 49 | 2.0 | 2.0 | 0.00 | 0.00 | 0.00 | 81 | 1011.1 |
| 20260507060139 | 55 | 43 | 4.0 | 7.0 | 0.00 | 0.00 | 0.00 | 81 | 1011.0 |
| 20260507055635 | 55 | 57 | 4.0 | 5.0 | 0.00 | 0.00 | 0.00 | 80 | 1011.1 |
| 20260507055131 | 55 | 43 | 3.0 | 5.0 | 0.00 | 0.00 | 0.00 | 81 | 1011.2 |
| 20260507054627 | 55 | 46 | 4.0 | 6.0 | 0.00 | 0.00 | 0.00 | 81 | 1011.3 |
| 20260507054124 | 55 | 88 | 1.0 | 2.0 | 0.00 | 0.00 | 0.00 | 82 | 1011.3 |
| 20260507053622 | 55 | 59 | 2.0 | 3.0 | 0.00 | 0.00 | 0.00 | 81 | 1011.4 |
| 20260507053120 | 55 | 62 | 1.0 | 2.0 | 0.00 | 0.00 | 0.00 | 82 | 1010.8 |
| 20260507052618 | 55 | 73 | 0.0 | 1.0 | 0.00 | 0.00 | 0.00 | 82 | 1010.7 |
| 20260507052114 | 56 | 15 | 4.0 | 7.0 | 0.00 | 0.00 | 0.00 | 82 | 1010.6 |
| 20260507051612 | 56 | 31 | 4.0 | 6.0 | 0.00 | 0.00 | 0.00 | 83 | 1010.7 |
| 20260507051109 | 56 | 74 | 4.0 | 6.0 | 0.00 | 0.00 | 0.00 | 83 | 1010.5 |
| 20260507050605 | 56 | 353 | 6.0 | 8.0 | 0.00 | 0.00 | 0.00 | 83 | 1010.2 |
| 20260507045559 | 56 | 37 | 2.0 | 6.0 | 0.00 | 0.15 | 0.15 | 83 | 1010.7 |
| 20260507045056 | 57 | 45 | 10.0 | 14.0 | 0.00 | 0.15 | 0.15 | 83 | 1010.8 |
| 20260507044552 | 57 | 33 | 9.0 | 13.0 | 0.00 | 0.15 | 0.15 | 82 | 1010.5 |
| 20260507044050 | 57 | 44 | 5.0 | 7.0 | 0.00 | 0.15 | 0.15 | 81 | 1010.3 |
| 20260507043545 | 58 | 31 | 2.0 | 3.0 | 0.00 | 0.15 | 0.15 | 81 | 1010.3 |
| 20260507043043 | 58 | 24 | 3.0 | 3.0 | 0.00 | 0.15 | 0.15 | 81 | 1010.2 |
| 20260507042538 | 58 | 34 | 4.0 | 6.0 | 0.00 | 0.15 | 0.15 | 81 | 1010.1 |
| 20260507042034 | 58 | 30 | 4.0 | 5.0 | 0.00 | 0.15 | 0.15 | 81 | 1010.1 |
| 20260507041531 | 58 | 71 | 5.0 | 7.0 | 0.00 | 0.15 | 0.15 | 81 | 1009.5 |
| 20260507041028 | 58 | 85 | 2.0 | 3.0 | 0.00 | 0.15 | 0.15 | 81 | 1009.8 |
| 20260507040525 | 58 | 69 | 3.0 | 5.0 | 0.00 | 0.15 | 0.15 | 81 | 1010.3 |
| 20260507040020 | 58 | 17 | 4.0 | 5.0 | 0.00 | 0.15 | 0.15 | 82 | 1010.1 |
| 20260507035517 | 59 | 78 | 0.0 | 1.0 | 0.00 | 0.15 | 0.15 | 81 | 1009.9 |
| 20260507035014 | 59 | 63 | 4.0 | 5.0 | 0.00 | 0.15 | 0.15 | 81 | 1010.4 |
| 20260507034510 | 59 | 56 | 3.0 | 5.0 | 0.00 | 0.15 | 0.15 | 81 | 1010.0 |
| 20260507034009 | 59 | 74 | 1.0 | 2.0 | 0.00 | 0.15 | 0.15 | 80 | 1010.2 |
| 20260507033506 | 59 | 92 | 1.0 | 1.0 | 0.00 | 0.15 | 0.15 | 80 | 1010.3 |
| 20260507033003 | 59 | 52 | 3.0 | 3.0 | 0.00 | 0.15 | 0.15 | 80 | 1010.3 |
| 20260507032500 | 59 | 38 | 5.0 | 6.0 | 0.00 | 0.15 | 0.15 | 80 | 1010.4 |
| 20260507031956 | 59 | 53 | 6.0 | 7.0 | 0.00 | 0.15 | 0.15 | 81 | 1010.6 |
| 20260507031452 | 59 | 33 | 3.0 | 3.0 | 0.00 | 0.15 | 0.15 | 81 | 1010.4 |
| 20260507030949 | 59 | 354 | 3.0 | 5.0 | 0.00 | 0.15 | 0.15 | 81 | 1010.3 |
| 20260507030446 | 59 | 57 | 3.0 | 5.0 | 0.00 | 0.15 | 0.15 | 81 | 1009.8 |
| 20260507025943 | 60 | 54 | 2.0 | 5.0 | 0.00 | 0.15 | 0.15 | 81 | 1009.6 |
| 20260507025441 | 60 | 84 | 1.0 | 2.0 | 0.00 | 0.15 | 0.15 | 81 | 1010.0 |
| 20260507024939 | 60 | 77 | 1.0 | 2.0 | 0.00 | 0.15 | 0.15 | 80 | 1009.8 |
| 20260507024436 | 60 | 50 | 3.0 | 5.0 | 0.00 | 0.15 | 0.15 | 81 | 1009.8 |
| 20260507023931 | 60 | 49 | 8.0 | 9.0 | 0.00 | 0.15 | 0.15 | 80 | 1010.3 |
| 20260507023428 | 60 | 19 | 7.0 | 11.0 | 0.00 | 0.15 | 0.15 | 81 | 1010.2 |
| 20260507022925 | 60 | 32 | 5.0 | 6.0 | 0.00 | 0.15 | 0.15 | 82 | 1010.1 |
| 20260507022423 | 60 | 30 | 6.0 | 8.0 | 0.00 | 0.15 | 0.15 | 82 | 1010.0 |
| 20260507021918 | 61 | 86 | 1.0 | 1.0 | 0.00 | 0.15 | 0.15 | 83 | 1009.7 |
| 20260507021413 | 60 | 62 | 3.0 | 6.0 | 0.00 | 0.15 | 0.15 | 82 | 1009.5 |
| 20260507020912 | 61 | 39 | 1.0 | 3.0 | 0.00 | 0.15 | 0.15 | 82 | 1009.1 |
| 20260507020408 | 61 | 71 | 3.0 | 5.0 | 0.00 | 0.15 | 0.15 | 82 | 1009.1 |
| 20260507015905 | 61 | 66 | 2.0 | 3.0 | 0.00 | 0.15 | 0.15 | 82 | 1008.8 |
| 20260507015403 | 61 | 73 | 4.0 | 6.0 | 0.00 | 0.15 | 0.15 | 83 | 1009.4 |
| 20260507014900 | 62 | 94 | 3.0 | 5.0 | 0.00 | 0.15 | 0.15 | 83 | 1009.3 |
| 20260507014356 | 62 | 91 | 1.0 | 2.0 | 0.00 | 0.15 | 0.15 | 82 | 1009.7 |
| 20260507013853 | 62 | 105 | 3.0 | 6.0 | 0.00 | 0.15 | 0.15 | 83 | 1009.2 |
| 20260507013350 | 62 | 88 | 4.0 | 6.0 | 0.00 | 0.15 | 0.15 | 83 | 1009.1 |
| 20260507012847 | 63 | 37 | 9.0 | 13.0 | 0.00 | 0.15 | 0.15 | 83 | 1009.6 |
| 20260507012343 | 63 | 77 | 3.0 | 6.0 | 0.00 | 0.15 | 0.15 | 83 | 1009.1 |
| 20260507011841 | 63 | 83 | 1.0 | 2.0 | 0.00 | 0.15 | 0.15 | 83 | 1008.6 |
| 20260507011338 | 63 | 80 | 5.0 | 7.0 | 0.00 | 0.15 | 0.15 | 85 | 1008.7 |
| 20260507010837 | 64 | 108 | 2.0 | 3.0 | 0.00 | 0.15 | 0.15 | 86 | 1008.9 |
| 20260507010333 | 64 | 103 | 0.0 | 0.0 | 0.00 | 0.15 | 0.15 | 86 | 1008.9 |
| 20260507005830 | 64 | 109 | 2.0 | 2.0 | 0.00 | 0.15 | 0.15 | 85 | 1008.6 |
| 20260507005327 | 65 | 103 | 2.0 | 2.0 | 0.00 | 0.15 | 0.15 | 84 | 1008.9 |
| 20260507004824 | 65 | 58 | 2.0 | 2.0 | 0.00 | 0.15 | 0.15 | 84 | 1008.8 |
| 20260507004321 | 65 | 55 | 2.0 | 2.0 | 0.00 | 0.15 | 0.15 | 83 | 1008.9 |
| 20260507003818 | 65 | 63 | 1.0 | 2.0 | 0.00 | 0.15 | 0.15 | 83 | 1009.0 |
| 20260507003313 | 65 | 93 | 0.0 | 1.0 | 0.00 | 0.15 | 0.15 | 83 | 1008.9 |
| 20260507002808 | 65 | 101 | 2.0 | 2.0 | 0.00 | 0.15 | 0.15 | 82 | 1009.0 |
| 20260507002306 | 65 | 91 | 0.0 | 0.0 | 0.00 | 0.15 | 0.15 | 82 | 1009.0 |
| 20260507001802 | 65 | 92 | 1.0 | 1.0 | 0.00 | 0.15 | 0.15 | 82 | 1008.8 |
| 20260507001300 | 66 | 40 | 0.0 | 0.0 | 0.00 | 0.15 | 0.15 | 81 | 1008.8 |
| 20260507000756 | 66 | 40 | 0.0 | 1.0 | 0.00 | 0.15 | 0.15 | 80 | 1008.8 |
| 20260507000252 | 66 | 40 | 0.0 | 1.0 | 0.00 | 0.15 | 0.15 | 80 | 1008.5 |
| 20260506235748 | 66 | 39 | 0.0 | 1.0 | 0.00 | 0.15 | 0.15 | 78 | 1008.7 |
| 20260506235244 | 66 | 22 | 1.0 | 2.0 | 0.00 | 0.15 | 0.15 | 78 | 1008.7 |